| time (UTC) | temp C | wind direction | speed KPH | gust KPH | rain 1hr cm | rain 24hr cm | rain mn cm | humidity % | barometer mb |
| 20260506023349 | 25 | 342 | 0.0 | 4.8 | 0.00 | 0.00 | 0.00 | 30 | 1012.7 |
| 20260506022559 | 25 | 342 | 0.0 | 6.4 | 0.00 | 0.00 | 0.00 | 29 | 1012.5 |
| 20260506020349 | 25 | 354 | 1.6 | 8.0 | 0.00 | 0.00 | 0.00 | 28 | 1012.3 |
| 20260506014849 | 26 | 278 | 1.6 | 6.4 | 0.00 | 0.00 | 0.00 | 27 | 1012.2 |
| 20260506013350 | 26 | 304 | 1.6 | 12.9 | 0.00 | 0.00 | 0.00 | 26 | 1012.1 |
| 20260506011849 | 26 | 268 | 0.0 | 6.4 | 0.00 | 0.00 | 0.00 | 26 | 1011.9 |
| 20260506010348 | 26 | 326 | 0.0 | 6.4 | 0.00 | 0.00 | 0.00 | 25 | 1012.0 |
| 20260506004849 | 26 | 276 | 1.6 | 6.4 | 0.00 | 0.00 | 0.00 | 25 | 1012.0 |
| 20260506003348 | 26 | 340 | 1.6 | 8.0 | 0.00 | 0.00 | 0.00 | 24 | 1011.8 |
| 20260506001843 | 26 | 316 | 1.6 | 17.7 | 0.00 | 0.00 | 0.00 | 24 | 1011.9 |
| 20260506000344 | 26 | 335 | 1.6 | 14.5 | 0.00 | 0.00 | 0.00 | 24 | 1011.9 |
| 20260505234843 | 26 | 359 | 1.6 | 9.7 | 0.00 | 0.00 | 0.00 | 25 | 1011.9 |
| 20260505233342 | 26 | 354 | 1.6 | 14.5 | 0.00 | 0.00 | 0.00 | 26 | 1012.1 |
| 20260505231843 | 26 | 244 | 1.6 | 12.9 | 0.00 | 0.00 | 0.00 | 27 | 1012.1 |
| 20260505230342 | 26 | 166 | 1.6 | 6.4 | 0.00 | 0.00 | 0.00 | 26 | 1012.2 |
| 20260505224839 | 25 | 249 | 0.0 | 4.8 | 0.00 | 0.00 | 0.00 | 26 | 1012.4 |
| 20260505223340 | 25 | 243 | 0.0 | 3.2 | 0.00 | 0.00 | 0.00 | 28 | 1012.7 |
| 20260505222540 | 25 | 180 | 0.0 | 4.8 | 0.00 | 0.00 | 0.00 | 28 | 1012.8 |
| 20260505220336 | 25 | 58 | 0.0 | 3.2 | 0.00 | 0.00 | 0.00 | 29 | 1013.1 |
| 20260505214837 | 23 | 295 | 0.0 | 1.6 | 0.00 | 0.00 | 0.00 | 32 | 1013.3 |
| 20260505213337 | 23 | 122 | 0.0 | 6.4 | 0.00 | 0.00 | 0.00 | 37 | 1013.4 |
| 20260505211834 | 22 | 274 | 0.0 | 4.8 | 0.00 | 0.00 | 0.00 | 39 | 1013.8 |
| 20260505210333 | 22 | 312 | 0.0 | 1.6 | 0.00 | 0.00 | 0.00 | 41 | 1014.0 |
| 20260505204832 | 21 | 227 | 0.0 | 0.0 | 0.00 | 0.00 | 0.00 | 41 | 1014.2 |
| 20260505203333 | 21 | 103 | 0.0 | 0.0 | 0.00 | 0.00 | 0.00 | 40 | 1014.3 |
| 20260505201832 | 20 | 237 | 0.0 | 4.8 | 0.00 | 0.00 | 0.00 | 41 | 1014.5 |
| 20260505201023 | 20 | 286 | 0.0 | 6.4 | 0.00 | 0.00 | 0.00 | 45 | 1014.7 |
| 20260505194833 | 19 | 262 | 0.0 | 6.4 | 0.00 | 0.00 | 0.00 | 49 | 1014.8 |
| 20260505193333 | 18 | 296 | 0.0 | 6.4 | 0.00 | 0.00 | 0.00 | 52 | 1014.9 |
| 20260505191832 | 18 | 339 | 0.0 | 4.8 | 0.00 | 0.00 | 0.00 | 52 | 1015.0 |
| 20260505190332 | 18 | 276 | 0.0 | 3.2 | 0.00 | 0.00 | 0.00 | 52 | 1015.1 |
| 20260505184830 | 17 | 293 | 0.0 | 4.8 | 0.00 | 0.00 | 0.00 | 56 | 1015.3 |
| 20260505183330 | 17 | 189 | 0.0 | 3.2 | 0.00 | 0.00 | 0.00 | 57 | 1015.4 |
| 20260505181830 | 17 | 185 | 0.0 | 3.2 | 0.00 | 0.00 | 0.00 | 57 | 1015.5 |
| 20260505180331 | 16 | 204 | 0.0 | 9.7 | 0.00 | 0.00 | 0.00 | 58 | 1015.6 |
| 20260505174830 | 16 | 247 | 0.0 | 3.2 | 0.00 | 0.00 | 0.00 | 60 | 1015.6 |
| 20260505173328 | 16 | 276 | 0.0 | 1.6 | 0.00 | 0.00 | 0.00 | 62 | 1015.7 |
| 20260505171828 | 15 | 165 | 0.0 | 1.6 | 0.00 | 0.00 | 0.00 | 63 | 1015.7 |
| 20260505170325 | 15 | 308 | 0.0 | 1.6 | 0.00 | 0.00 | 0.00 | 65 | 1015.7 |
| 20260505164826 | 15 | 238 | 0.0 | 3.2 | 0.00 | 0.00 | 0.00 | 66 | 1015.7 |
| 20260505163326 | 15 | 263 | 0.0 | 1.6 | 0.00 | 0.00 | 0.00 | 68 | 1015.8 |
| 20260505161826 | 14 | 274 | 0.0 | 1.6 | 0.00 | 0.00 | 0.00 | 67 | 1015.9 |
| 20260505160326 | 14 | 278 | 0.0 | 0.0 | 0.00 | 0.00 | 0.00 | 68 | 1016.0 |
| 20260505153328 | 14 | 258 | 0.0 | 0.0 | 0.00 | 0.00 | 0.00 | 69 | 1015.9 |
| 20260505151825 | 13 | 248 | 0.0 | 6.4 | 0.00 | 0.00 | 0.00 | 70 | 1015.8 |
| 20260505150328 | 13 | 290 | 0.0 | 0.0 | 0.00 | 0.00 | 0.00 | 70 | 1015.6 |
| 20260505140326 | 13 | 234 | 0.0 | 0.0 | 0.00 | 0.00 | 0.00 | 72 | 1015.2 |
| 20260505124818 | 13 | 234 | 0.0 | 0.0 | 0.00 | 0.00 | 0.00 | 72 | 1014.7 |
| 20260505123320 | 13 | 234 | 0.0 | 0.0 | 0.00 | 0.00 | 0.00 | 72 | 1014.6 |
| 20260505121818 | 13 | 234 | 0.0 | 0.0 | 0.00 | 0.00 | 0.00 | 72 | 1014.5 |
| 20260505120316 | 13 | 225 | 0.0 | 0.0 | 0.00 | 0.00 | 0.00 | 72 | 1014.5 |
| 20260505114814 | 13 | 214 | 0.0 | 0.0 | 0.00 | 0.00 | 0.00 | 71 | 1014.3 |
| 20260505114021 | 13 | 246 | 0.0 | 1.6 | 0.00 | 0.00 | 0.00 | 71 | 1014.3 |
| 20260505111811 | 13 | 188 | 0.0 | 1.6 | 0.00 | 0.00 | 0.00 | 71 | 1014.2 |
| 20260505111016 | 13 | 214 | 0.0 | 1.6 | 0.00 | 0.00 | 0.00 | 71 | 1014.2 |
| 20260505100301 | 13 | 214 | 0.0 | 0.0 | 0.00 | 0.00 | 0.00 | 70 | 1014.0 |
| 20260505094758 | 13 | 215 | 0.0 | 0.0 | 0.00 | 0.00 | 0.00 | 70 | 1014.0 |
| 20260505093259 | 13 | 216 | 0.0 | 0.0 | 0.00 | 0.00 | 0.00 | 70 | 1014.2 |
| 20260505092457 | 13 | 216 | 0.0 | 0.0 | 0.00 | 0.00 | 0.00 | 69 | 1014.3 |
| 20260505090256 | 14 | 265 | 0.0 | 0.0 | 0.00 | 0.00 | 0.00 | 69 | 1014.2 |
| 20260505084753 | 14 | 279 | 0.0 | 0.0 | 0.00 | 0.00 | 0.00 | 70 | 1014.3 |
| 20260505083252 | 14 | 285 | 0.0 | 0.0 | 0.00 | 0.00 | 0.00 | 70 | 1014.3 |
| 20260505081745 | 14 | 290 | 0.0 | 0.0 | 0.00 | 0.00 | 0.00 | 70 | 1014.5 |
| 20260505080243 | 14 | 282 | 0.0 | 0.0 | 0.00 | 0.00 | 0.00 | 70 | 1014.5 |
| 20260505074742 | 14 | 262 | 0.0 | 0.0 | 0.00 | 0.00 | 0.00 | 70 | 1014.5 |
| 20260505073239 | 14 | 286 | 0.0 | 0.0 | 0.00 | 0.00 | 0.00 | 70 | 1014.4 |
| 20260505071739 | 14 | 283 | 0.0 | 0.0 | 0.00 | 0.00 | 0.00 | 70 | 1014.4 |
| 20260505070947 | 14 | 285 | 0.0 | 0.0 | 0.00 | 0.00 | 0.00 | 70 | 1014.3 |
| 20260505064740 | 14 | 283 | 0.0 | 1.6 | 0.00 | 0.00 | 0.00 | 69 | 1014.2 |
| 20260505063239 | 14 | 214 | 0.0 | 1.6 | 0.00 | 0.00 | 0.00 | 69 | 1014.2 |
| 20260505061740 | 14 | 193 | 0.0 | 0.0 | 0.00 | 0.00 | 0.00 | 70 | 1014.2 |
| 20260505060242 | 14 | 223 | 0.0 | 1.6 | 0.00 | 0.00 | 0.00 | 69 | 1014.0 |
| 20260505054740 | 14 | 262 | 0.0 | 1.6 | 0.00 | 0.00 | 0.00 | 69 | 1014.0 |
| 20260505053241 | 14 | 283 | 0.0 | 1.6 | 0.00 | 0.00 | 0.00 | 69 | 1013.8 |
| 20260505051739 | 14 | 318 | 0.0 | 1.6 | 0.00 | 0.00 | 0.00 | 68 | 1013.6 |
| 20260505050237 | 15 | 285 | 0.0 | 3.2 | 0.00 | 0.00 | 0.00 | 67 | 1013.5 |
| 20260505041739 | 16 | 299 | 0.0 | 0.0 | 0.00 | 0.00 | 0.00 | 64 | 1012.7 |
| 20260505040231 | 16 | 268 | 0.0 | 4.8 | 0.00 | 0.00 | 0.00 | 63 | 1012.4 |
| 20260505035417 | 16 | 286 | 0.0 | 3.2 | 0.00 | 0.00 | 0.00 | 61 | 1012.1 |
| 20260505033228 | 17 | 292 | 0.0 | 3.2 | 0.00 | 0.00 | 0.00 | 60 | 1011.8 |
| 20260505031729 | 18 | 287 | 0.0 | 3.2 | 0.00 | 0.00 | 0.00 | 58 | 1011.3 |
| 20260505030228 | 18 | 249 | 0.0 | 12.9 | 0.00 | 0.00 | 0.00 | 56 | 1011.0 |